Flag for Germany Weather past 2 weeks in Pinneberg, Schleswig-Holstein, Germany

Now
50 °F

Scattered clouds.


Feels Like: 46 °F
Forecast: 44 / 63 °F
Wind: 9 mph from Southwest

Location: Hamburg-Fuhlsbuettel

Current Time: May 30, 2015 at 2:38:37 PM

Latest Report: May 30, 2015 at 2:20 PM


Visibility: N/A

Pressure: 29.83 "Hg

Humidity: 88%

Dew point: 46 °F

Location of PinnebergLocation

Historic Weather in Pinneberg — Graph

°F

Pinneberg temperature yesterday

Maximum temperature yesterday: 63 °F (at 2:20 PM)
Minimum temperature yesterday: 41 °F (at 2:20 AM)
Average temperature yesterday: 53 °F

Past Weeks' High & Low Weather Summary

 TemperatureHumidityPressure
High66 °F (May 22, 4:20 PM)100% (May 21, 2:20 AM)30.30 "Hg (May 21, 2:20 AM)
Low37 °F (May 24, 3:50 AM)40% (May 24, 6:50 PM)29.56 "Hg (May 19, 2:20 AM)
Average52 °F75%29.99 "Hg
* Reported May 15 1:20 PM — May 30 1:20 PM, Pinneberg, Weather by CustomWeather, © 2015

Note: Actual official high and low records may vary slightly from our data, if they occured in-between our weather recording intervals... More about our weather records

Advertising

Pinneberg weather history for previous 24 hours

 ConditionsComfort  
Time TempWeatherWind HumidityBarometerVisibility
1:20 PM
Sat, May 30
54 °FScattered clouds.16 mph67%29.80 "HgN/A
12:50 PM52 °FScattered clouds.15 mph77%29.80 "HgN/A
12:20 PM50 °FScattered showers. Scattered clouds.9 mph76%29.80 "HgN/A
11:50 AM50 °FSprinkles. Scattered clouds.10 mph76%29.80 "HgN/A
11:20 AM50 °FSprinkles. Scattered clouds.12 mph76%29.77 "HgN/A
10:50 AM54 °FScattered showers. Scattered clouds.15 mph63%29.77 "HgN/A
10:20 AM52 °FScattered showers. Scattered clouds.14 mph72%29.77 "HgN/A
9:50 AM50 °FScattered clouds.12 mph82%29.74 "HgN/A
9:20 AM50 °FSprinkles. Broken clouds.15 mph76%29.74 "HgN/A
8:50 AM50 °FScattered showers. Scattered clouds.10 mph82%29.74 "HgN/A
8:20 AM48 °FSprinkles. Scattered clouds.12 mph87%29.74 "HgN/A
7:50 AM48 °FScattered showers. Partly sunny.14 mph82%29.71 "HgN/A
7:20 AM48 °FSprinkles. Broken clouds.14 mph82%29.71 "HgN/A
6:50 AM48 °FPartly sunny.14 mph82%29.68 "HgN/A
6:20 AM48 °FBroken clouds.14 mph82%29.68 "HgN/A
5:50 AM48 °FPassing clouds.15 mph82%29.68 "HgN/A
5:20 AM50 °FPassing clouds.14 mph71%29.65 "HgN/A
4:50 AM50 °FPassing clouds.14 mph76%29.65 "HgN/A
4:20 AM50 °FSprinkles. Passing clouds.13 mph76%29.65 "HgN/A
3:50 AM50 °FPartly cloudy.16 mph76%29.65 "HgN/A
3:20 AM50 °FPartly cloudy.14 mph82%29.65 "HgN/A
2:50 AM50 °FPassing clouds.15 mph76%29.65 "HgN/A
2:20 AM50 °FPassing clouds.16 mph82%29.65 "HgN/A
1:50 AM50 °FPassing clouds.16 mph82%29.65 "HgN/A
1:20 AM52 °FLight rain. Mostly cloudy.13 mph82%29.62 "HgN/A
12:50 AM55 °FLight rain. Overcast.18 mph67%29.62 "HgN/A
12:20 AM55 °FLight rain. Passing clouds.13 mph67%29.62 "HgN/A
11:50 PM
Fri, May 29
55 °FPassing clouds.9 mph72%29.62 "HgN/A
11:20 PM54 °FClear.6 mph88%29.62 "Hg10 mi
10:20 PM52 °FSunny.No wind88%29.65 "Hg10 mi
9:50 PM52 °FSunny.2 mph88%29.65 "Hg10 mi
9:20 PM54 °FSunny.6 mph82%29.65 "Hg10 mi
8:50 PM55 °FSunny.7 mph77%29.65 "Hg10 mi
8:20 PM57 °FPassing clouds.9 mph63%29.65 "HgN/A
7:50 PM59 °FSunny.10 mph55%29.65 "Hg10 mi
7:20 PM59 °FSunny.9 mph72%29.65 "Hg10 mi
6:50 PM57 °FSprinkles. Broken clouds.9 mph77%29.65 "HgN/A
6:20 PM61 °FSprinkles. Broken clouds.12 mph59%29.65 "HgN/A
5:50 PM61 °FSprinkles. Broken clouds.20 mph52%29.68 "HgN/A
5:20 PM63 °FPassing clouds.13 mph45%29.68 "HgN/A
4:50 PM63 °FSunny.15 mph45%29.71 "Hg10 mi
4:20 PM63 °FPassing clouds.15 mph42%29.71 "HgN/A
3:50 PM63 °FSunny.16 mph42%29.71 "Hg10 mi
3:20 PM63 °FPassing clouds.16 mph42%29.74 "HgN/A
2:50 PM61 °FPassing clouds.16 mph45%29.77 "HgN/A
2:20 PM63 °FSunny.15 mph45%29.77 "Hg10 mi
Weather by CustomWeather, © 2015

See weather overviewHow to use our weather pages